EW9596 Weather Reports


Display with metric or nautical units.
time (UTC)temp
F
wind
direction
speed
MPH
gust
MPH
rain 1hr
in
rain 24hr
in
rain mn
in
humidity
%
barometer
mb
20260901072055 67 130 0.0 0.0 0.00 0.38 0.00 93 1016.2
20260901071558 67 130 0.0 0.0 0.00 0.38 0.00 93 1016.2
20260901071057 67 130 0.0 0.0 0.00 0.38 0.00 93 1016.3
20260901070554 67 130 0.0 0.0 0.00 0.38 0.00 93 1016.3
20260901070104 67 130 0.0 0.0 0.00 0.38 0.00 93 1016.2
20260901065554 67 130 0.0 0.0 0.00 0.38 0.00 93 1016.3
20260901065054 67 130 0.0 0.0 0.00 0.38 0.00 93 1016.3
20260901064554 67 130 0.0 0.0 0.00 0.38 0.00 93 1016.3
20260901064054 67 130 0.0 0.0 0.00 0.38 0.00 93 1016.2
20260901063553 67 130 0.0 0.0 0.00 0.38 0.00 93 1016.2
20260901063054 67 130 0.0 0.0 0.00 0.38 0.00 93 1016.1
20260901062554 67 130 0.0 0.0 0.00 0.38 0.00 92 1016.2
20260901062053 67 130 0.0 0.0 0.00 0.38 0.00 92 1016.4
20260901061551 67 130 0.0 0.0 0.00 0.38 0.00 92 1016.4
20260901061050 67 130 0.0 0.0 0.00 0.38 0.00 92 1016.5
20260901060549 67 130 0.0 0.0 0.00 0.38 0.00 92 1016.6
20260901060048 67 130 0.0 0.0 0.00 0.38 0.00 92 1016.6
20260901055548 67 130 0.0 0.0 0.00 0.38 0.00 92 1016.8
20260901055048 67 130 0.0 0.0 0.00 0.38 0.00 92 1016.7
20260901054548 67 130 0.0 0.0 0.00 0.38 0.00 92 1016.7
20260901054049 67 130 0.0 0.0 0.00 0.38 0.00 92 1016.8
20260901053546 67 130 0.0 0.0 0.00 0.38 0.00 92 1016.9
20260901053052 67 130 0.0 0.0 0.00 0.38 0.00 92 1016.9
20260901052546 67 130 0.0 0.0 0.00 0.38 0.00 92 1016.9
20260901052045 67 130 0.0 0.0 0.00 0.38 0.00 92 1017.0
20260901051647 67 130 0.0 0.0 0.00 0.38 0.00 92 1017.1
20260901051044 67 130 0.0 0.0 0.00 0.38 0.00 92 1017.1
20260901050544 67 130 0.0 0.0 0.00 0.38 0.00 92 1017.1
20260901050051 67 130 0.0 0.0 0.00 0.38 0.00 92 1017.0
20260901045544 67 130 0.0 0.0 0.00 0.38 0.00 92 1017.0
20260901045044 67 130 0.0 0.0 0.00 0.38 0.00 92 1017.0
20260901044555 67 130 0.0 0.0 0.00 0.38 0.00 92 1017.0
20260901044042 67 130 0.0 0.0 0.00 0.38 0.00 92 1017.1
20260901043542 67 130 0.0 0.0 0.00 0.38 0.00 92 1017.1
20260901043042 67 130 0.0 0.0 0.00 0.38 0.00 92 1017.2
20260901042544 67 130 0.0 0.0 0.01 0.38 0.00 92 1017.1
20260901042041 67 130 0.0 0.0 0.01 0.38 0.00 92 1017.1
20260901041541 67 130 0.0 0.0 0.01 0.38 0.00 92 1017.1
20260901041043 68 130 0.0 0.0 0.01 0.38 0.00 92 1017.0
20260901040539 68 130 0.0 0.0 0.01 0.38 0.00 92 1017.1
20260901040048 68 130 0.0 0.0 0.01 0.38 0.00 92 1017.1
20260901035538 68 130 0.0 0.0 0.01 0.38 0.38 92 1017.1
20260901035038 68 130 0.0 0.0 0.01 0.38 0.38 92 1017.1
20260901034542 68 130 0.0 0.0 0.01 0.38 0.38 92 1017.0
20260901034038 68 130 0.0 0.0 0.01 0.38 0.38 92 1017.1
20260901033538 68 130 0.0 0.0 0.01 0.38 0.38 92 1017.1
20260901033053 68 130 0.0 0.0 0.01 0.38 0.38 92 1017.1
20260901032537 68 130 0.0 0.0 0.00 0.37 0.37 92 1017.1
20260901032037 68 130 0.0 0.0 0.00 0.37 0.37 92 1017.1
20260901031537 68 130 0.0 0.0 0.00 0.37 0.37 92 1017.2
20260901031037 68 130 0.0 0.0 0.00 0.37 0.37 92 1017.2
20260901030538 68 130 0.0 0.0 0.00 0.37 0.37 92 1017.2
20260901030037 68 130 0.0 0.0 0.00 0.37 0.37 92 1017.0
20260901025537 68 130 0.0 0.0 0.00 0.37 0.37 92 1017.1
20260901025038 68 130 0.0 0.0 0.00 0.37 0.37 92 1017.1
20260901024537 69 130 0.0 0.0 0.00 0.37 0.37 92 1017.1
20260901024036 69 130 0.0 0.0 0.00 0.37 0.37 92 1017.2
20260901023536 69 130 0.0 0.0 0.00 0.37 0.37 92 1017.3
20260901023039 69 130 0.0 0.0 0.00 0.37 0.37 92 1017.4
20260901022538 69 130 0.0 2.0 0.00 0.37 0.37 92 1017.3
20260901022035 69 130 0.0 2.0 0.00 0.37 0.37 92 1017.3
20260901021551 69 130 0.0 2.0 0.00 0.37 0.37 92 1017.3
20260901021035 69 130 0.0 2.0 0.00 0.37 0.37 92 1017.4
20260901020535 69 130 0.0 3.0 0.00 0.37 0.37 92 1017.5
20260901020035 69 130 0.0 3.0 0.00 0.37 0.37 92 1017.3
20260901015534 69 121 1.0 4.0 0.00 0.37 0.37 92 1017.4
20260901015034 69 344 2.0 5.0 0.00 0.37 0.37 92 1017.5
20260901014534 69 147 0.0 2.0 0.00 0.37 0.37 92 1017.5
20260901014034 68 346 0.0 4.0 0.00 0.37 0.37 92 1017.4
20260901013534 69 259 0.0 0.0 0.00 0.37 0.37 92 1017.7
20260901013047 68 211 0.0 0.0 0.00 0.37 0.37 91 1017.6
20260901012533 68 211 0.0 0.0 0.01 0.37 0.37 91 1017.7
20260901012033 68 205 0.0 0.0 0.01 0.37 0.37 91 1017.7
20260901011547 69 202 0.0 0.0 0.01 0.37 0.37 91 1017.8
20260901011033 69 75 0.0 0.0 0.01 0.37 0.37 92 1017.7
20260901010535 69 133 0.0 0.0 0.01 0.37 0.37 91 1017.7
20260901010033 69 133 0.0 0.0 0.01 0.37 0.37 91 1017.6
20260901005533 69 133 0.0 0.0 0.01 0.37 0.37 92 1017.7
20260901005036 69 133 0.0 0.0 0.01 0.37 0.37 92 1017.6
20260901004532 69 133 0.0 0.0 0.01 0.37 0.37 92 1017.4
20260901004032 69 133 0.0 0.0 0.01 0.37 0.37 91 1017.4
20260901003531 69 133 0.0 0.0 0.01 0.37 0.37 92 1017.3
20260901003040 69 133 0.0 0.0 0.01 0.37 0.37 91 1017.3
20260901002531 69 133 0.0 0.0 0.00 0.36 0.36 91 1017.2
20260901002032 69 133 0.0 0.0 0.00 0.36 0.36 91 1017.1
20260901001531 69 133 0.0 0.0 0.00 0.36 0.36 91 1017.1
20260901001032 69 133 0.0 0.0 0.00 0.36 0.36 91 1017.1
20260901000531 69 133 0.0 0.0 0.00 0.36 0.36 91 1017.1
20260901000033 69 133 0.0 0.0 0.00 0.36 0.36 91 1017.2
20260831235529 69 133 0.0 0.0 0.00 0.36 0.36 91 1017.2
20260831235030 69 133 0.0 0.0 0.00 0.36 0.36 91 1017.2
20260831234529 69 133 0.0 0.0 0.00 0.36 0.36 91 1017.3
20260831234027 69 133 0.0 0.0 0.00 0.36 0.36 91 1017.2
20260831233528 69 133 0.0 0.0 0.01 0.36 0.36 91 1017.3
20260831233028 69 133 0.0 0.0 0.01 0.36 0.36 91 1017.4
20260831232527 69 133 0.0 0.0 0.01 0.36 0.36 91 1017.4
20260831232027 69 133 0.0 0.0 0.02 0.36 0.36 91 1017.4
20260831231526 69 133 0.0 0.0 0.02 0.36 0.36 91 1017.4
20260831231026 69 133 0.0 0.0 0.02 0.36 0.36 91 1017.5
20260831230525 69 133 0.0 0.0 0.02 0.36 0.36 91 1017.5
20260831230025 69 133 0.0 0.0 0.02 0.36 0.36 91 1017.6
20260831225524 69 133 0.0 0.0 0.02 0.36 0.36 91 1017.7
20260831225024 69 133 0.0 0.0 0.03 0.36 0.36 91 1017.7
20260831224524 69 133 0.0 0.0 0.03 0.36 0.36 91 1017.7
20260831224024 69 133 0.0 0.0 0.02 0.35 0.35 91 1017.8
20260831223522 69 133 0.0 0.0 0.02 0.35 0.35 91 1017.9
20260831223028 69 133 0.0 0.0 0.02 0.35 0.35 91 1018.0
20260831222523 69 133 0.0 0.0 0.03 0.35 0.35 91 1018.1
20260831222020 69 133 0.0 0.0 0.02 0.34 0.34 91 1018.1
20260831221520 69 133 0.0 0.0 0.02 0.34 0.34 91 1018.2
20260831221019 69 133 0.0 0.0 0.02 0.34 0.34 91 1018.3
20260831220518 69 133 0.0 0.0 0.02 0.34 0.34 91 1018.4
20260831220025 69 133 0.0 1.0 0.02 0.34 0.34 91 1018.3
20260831215518 69 133 0.0 1.0 0.02 0.34 0.34 91 1018.3
20260831215019 69 133 0.0 0.0 0.01 0.33 0.33 91 1018.3
20260831214518 69 133 0.0 0.0 0.01 0.33 0.33 91 1018.3
20260831214018 69 133 0.0 0.0 0.01 0.33 0.33 91 1018.4
20260831213518 69 133 0.0 0.0 0.01 0.33 0.33 91 1018.3
20260831213018 69 133 0.0 0.0 0.01 0.33 0.33 91 1018.4
20260831212518 69 133 0.0 1.0 0.01 0.32 0.32 91 1018.4
20260831212018 69 133 0.0 1.0 0.01 0.32 0.32 91 1018.5
20260831211528 69 133 0.0 0.0 0.01 0.32 0.32 91 1018.5
20260831211016 70 133 0.0 0.0 0.01 0.32 0.32 91 1018.5
20260831210521 70 133 0.0 0.0 0.01 0.32 0.32 91 1018.5
20260831210017 70 133 0.0 0.0 0.02 0.32 0.32 91 1018.5
20260831205517 70 133 0.0 1.0 0.03 0.32 0.32 91 1018.3
20260831205021 70 133 0.0 1.0 0.04 0.32 0.32 91 1018.4
20260831204517 70 133 0.0 3.0 0.04 0.32 0.32 91 1018.4
20260831204017 70 133 0.0 3.0 0.04 0.32 0.32 91 1018.4
20260831203516 69 142 0.0 3.0 0.05 0.32 0.32 91 1018.3
20260831203017 69 169 0.0 0.0 0.06 0.32 0.32 91 1018.4
20260831202519 69 287 0.0 0.0 0.05 0.31 0.31 91 1018.5
20260831202019 69 287 0.0 0.0 0.05 0.31 0.31 91 1018.4
20260831201516 69 287 0.0 0.0 0.05 0.31 0.31 91 1018.5
20260831201018 69 287 0.0 0.0 0.05 0.31 0.31 91 1018.5
20260831200513 69 287 0.0 0.0 0.05 0.31 0.31 91 1018.7
20260831200016 69 287 0.0 0.0 0.04 0.30 0.30 91 1018.6
20260831195514 69 287 0.0 0.0 0.03 0.28 0.28 91 1018.6
20260831195014 69 287 0.0 0.0 0.02 0.28 0.28 91 1018.6
20260831194520 69 286 0.0 0.0 0.03 0.28 0.28 91 1018.5
20260831194013 69 172 0.0 0.0 0.03 0.28 0.28 91 1018.5
20260831193512 69 165 0.0 0.0 0.02 0.27 0.27 91 1018.6
20260831193016 69 162 0.0 0.0 0.02 0.26 0.26 90 1018.6
20260831192511 69 162 0.0 0.0 0.02 0.26 0.26 90 1018.8
20260831192013 69 162 0.0 0.0 0.03 0.26 0.26 90 1018.9
20260831191510 69 163 0.0 0.0 0.03 0.26 0.26 90 1018.9
20260831191009 69 163 0.0 0.0 0.03 0.26 0.26 90 1019.0
20260831190508 69 163 0.0 0.0 0.03 0.26 0.26 90 1019.1
20260831190010 69 163 0.0 0.0 0.04 0.26 0.26 90 1019.2
20260831185508 69 163 0.0 0.0 0.04 0.26 0.26 90 1019.1
20260831185006 69 163 0.0 0.0 0.04 0.26 0.26 90 1019.2
20260831184507 69 163 0.0 0.0 0.03 0.25 0.25 90 1019.3
20260831184005 69 164 0.0 0.0 0.04 0.25 0.25 89 1019.3
20260831183505 69 164 0.0 0.0 0.04 0.25 0.25 89 1019.3
20260831183005 68 162 0.0 0.0 0.03 0.24 0.24 89 1019.3
20260831182505 68 162 0.0 0.0 0.03 0.24 0.24 89 1019.5
20260831182004 68 163 0.0 0.0 0.03 0.23 0.23 89 1019.6
20260831181504 68 152 0.0 0.0 0.03 0.23 0.23 89 1019.7
20260831181007 68 152 0.0 0.0 0.05 0.23 0.23 88 1019.6
20260831180503 68 152 0.0 0.0 0.06 0.23 0.23 88 1019.7
20260831180002 68 152 0.0 0.0 0.06 0.22 0.22 88 1019.8
20260831175502 68 152 0.0 0.0 0.06 0.22 0.22 88 1019.9
20260831175002 68 150 0.0 0.0 0.06 0.22 0.22 88 1019.8
20260831174502 68 150 0.0 0.0 0.06 0.22 0.22 88 1019.9
20260831174002 68 150 0.0 0.0 0.06 0.21 0.21 87 1020.0
20260831173503 68 150 0.0 0.0 0.07 0.21 0.21 87 1020.1
20260831173001 68 150 0.0 0.0 0.07 0.21 0.21 87 1020.2
20260831172502 68 150 0.0 0.0 0.08 0.21 0.21 87 1020.2
20260831172100 68 150 0.0 0.0 0.07 0.20 0.20 86 1020.3
20260831171600 68 151 0.0 0.0 0.08 0.20 0.20 86 1020.4
20260831171502 68 151 0.0 0.0 0.08 0.20 0.20 86 1020.4
20260831171100 68 151 0.0 0.0 0.08 0.18 0.18 86 1020.4
20260831170600 68 151 0.0 0.0 0.11 0.18 0.18 86 1020.5
20260831170100 68 151 0.0 0.0 0.13 0.16 0.16 85 1020.5
20260831165602 68 151 0.0 0.0 0.16 0.16 0.16 85 1020.5
20260831165102 68 151 0.0 0.0 0.16 0.16 0.16 85 1020.5
20260831164600 69 151 0.0 0.0 0.16 0.16 0.16 85 1020.5
20260831164059 69 151 0.0 0.0 0.15 0.15 0.15 85 1020.5
20260831163559 69 151 0.0 0.0 0.14 0.14 0.14 85 1020.6
20260831163059 69 151 0.0 0.0 0.14 0.14 0.14 84 1020.6
20260831162559 69 150 0.0 0.0 0.13 0.13 0.13 84 1020.6
20260831162102 69 150 0.0 0.0 0.13 0.13 0.13 84 1020.7
20260831161559 69 150 0.0 2.0 0.12 0.12 0.12 84 1020.7
20260831161058 70 150 0.0 2.0 0.10 0.10 0.10 84 1020.8
20260831160601 70 125 0.0 6.0 0.07 0.07 0.07 84 1020.9
20260831160107 70 125 0.0 6.0 0.02 0.02 0.02 83 1020.8
20260831155558 70 334 1.0 6.0 0.00 0.00 0.00 84 1020.7
20260831155100 70 337 0.0 0.0 0.00 0.00 0.00 84 1020.6
20260831154557 70 337 0.0 0.0 0.00 0.00 0.00 84 1020.4
20260831154055 70 337 0.0 0.0 0.00 0.00 0.00 84 1020.4
20260831153555 70 337 0.0 0.0 0.00 0.00 0.00 84 1020.3
20260831153056 70 337 0.0 0.0 0.00 0.00 0.00 84 1020.3
20260831152555 70 337 0.0 0.0 0.00 0.00 0.00 84 1020.3
20260831152054 70 337 0.0 0.0 0.00 0.00 0.00 84 1020.4
20260831151554 69 337 0.0 0.0 0.00 0.00 0.00 85 1020.5
20260831151053 69 337 0.0 0.0 0.00 0.00 0.00 85 1020.5
20260831150552 69 339 0.0 2.0 0.00 0.00 0.00 85 1020.4
20260831150101 69 343 0.0 3.0 0.00 0.00 0.00 85 1020.4
20260831145551 69 12 0.0 3.0 0.00 0.00 0.00 86 1020.3
20260831145054 69 11 0.0 0.0 0.00 0.00 0.00 86 1020.3
20260831144558 69 12 0.0 0.0 0.00 0.00 0.00 87 1020.4
20260831144050 69 11 0.0 0.0 0.00 0.00 0.00 86 1020.4
20260831143550 68 12 0.0 0.0 0.00 0.00 0.00 87 1020.3
20260831143050 68 12 0.0 0.0 0.00 0.00 0.00 87 1020.2
20260831142549 68 13 0.0 0.0 0.00 0.00 0.00 87 1020.3
20260831142049 68 13 0.0 0.0 0.00 0.00 0.00 87 1020.4
20260831141548 68 13 0.0 0.0 0.00 0.00 0.00 88 1020.5
20260831141051 68 13 0.0 0.0 0.00 0.00 0.00 88 1020.4
20260831140547 67 12 0.0 3.0 0.00 0.00 0.00 88 1020.3
20260831140048 67 12 1.0 3.0 0.00 0.00 0.00 88 1020.4
20260831135552 67 38 1.0 4.0 0.00 0.00 0.00 88 1020.4
20260831135048 67 49 1.0 4.0 0.00 0.00 0.00 89 1020.3
20260831134552 67 13 2.0 4.0 0.00 0.00 0.00 89 1020.2
20260831134047 67 360 0.0 0.0 0.00 0.00 0.00 89 1020.3
20260831133549 66 360 0.0 0.0 0.00 0.00 0.00 89 1020.5
20260831133046 66 360 0.0 1.0 0.00 0.00 0.00 89 1020.6
20260831132546 66 360 0.0 3.0 0.00 0.00 0.00 89 1020.6
20260831132147 66 360 1.0 4.0 0.00 0.00 0.00 89 1020.6
20260831131551 66 355 2.0 4.0 0.00 0.00 0.00 90 1020.8
20260831131045 66 338 2.0 4.0 0.00 0.00 0.00 90 1020.8
20260831130544 65 34 0.0 3.0 0.00 0.00 0.00 90 1020.7
20260831130049 65 309 0.0 0.0 0.00 0.00 0.00 90 1020.7
20260831125544 65 309 0.0 0.0 0.00 0.00 0.00 90 1020.8
20260831125045 65 309 0.0 0.0 0.00 0.00 0.00 90 1020.8
20260831124550 65 304 0.0 0.0 0.00 0.00 0.00 90 1020.7
20260831124045 65 300 0.0 3.0 0.00 0.00 0.00 90 1020.6
20260831123542 65 290 0.0 3.0 0.00 0.00 0.00 90 1020.6
20260831123043 64 290 0.0 3.0 0.00 0.00 0.00 90 1020.6
20260831122546 64 290 1.0 3.0 0.00 0.00 0.00 90 1020.6
20260831122042 64 287 0.0 2.0 0.00 0.00 0.00 90 1020.7
20260831121542 64 284 0.0 0.0 0.00 0.00 0.00 90 1020.7
20260831121042 64 279 0.0 0.0 0.00 0.00 0.00 90 1020.9
20260831120541 64 279 0.0 0.0 0.00 0.00 0.00 89 1021.0
20260831120043 64 279 0.0 0.0 0.00 0.00 0.00 89 1021.0
20260831115540 63 279 0.0 0.0 0.00 0.00 0.00 89 1021.0
20260831115043 63 226 0.0 0.0 0.00 0.00 0.00 89 1021.0
20260831114539 63 226 0.0 0.0 0.00 0.00 0.00 89 1020.9
20260831114038 63 226 0.0 0.0 0.00 0.00 0.00 89 1020.9
20260831113538 63 226 0.0 0.0 0.00 0.00 0.00 89 1020.8
20260831113038 63 227 0.0 0.0 0.00 0.00 0.00 89 1020.7
20260831112538 63 226 0.0 0.0 0.00 0.00 0.00 88 1020.7
20260831112038 63 226 0.0 0.0 0.00 0.00 0.00 88 1020.7
20260831111537 63 226 0.0 0.0 0.00 0.00 0.00 88 1020.8
20260831111037 63 226 0.0 0.0 0.00 0.00 0.00 88 1020.8
20260831110538 63 226 0.0 0.0 0.00 0.00 0.00 88 1020.7
20260831110042 63 226 0.0 0.0 0.00 0.00 0.00 88 1020.6
20260831105538 63 226 0.0 0.0 0.00 0.00 0.00 88 1020.4
20260831105039 63 226 0.0 0.0 0.00 0.00 0.00 88 1020.3
20260831104635 63 226 0.0 0.0 0.00 0.00 0.00 88 1020.3
20260831104035 63 226 0.0 0.0 0.00 0.00 0.00 88 1020.1
20260831103534 63 227 0.0 0.0 0.00 0.00 0.00 88 1020.1
20260831103034 63 226 0.0 0.0 0.00 0.00 0.00 88 1020.1
20260831102534 63 227 0.0 0.0 0.00 0.00 0.00 88 1020.1
20260831102034 63 226 0.0 0.0 0.00 0.00 0.00 88 1020.2
20260831101539 63 226 0.0 0.0 0.00 0.00 0.00 88 1020.2
20260831101034 63 226 0.0 0.0 0.00 0.00 0.00 88 1020.1
20260831100535 63 227 0.0 0.0 0.00 0.00 0.00 87 1020.2
20260831100033 63 226 0.0 0.0 0.00 0.00 0.00 87 1020.2
20260831095533 63 226 0.0 0.0 0.00 0.00 0.00 87 1020.1
20260831095036 63 226 0.0 0.0 0.00 0.00 0.00 87 1020.1
20260831094532 63 227 0.0 0.0 0.00 0.00 0.00 87 1020.1
20260831094031 63 220 0.0 0.0 0.00 0.00 0.00 86 1020.1
20260831093531 63 220 0.0 0.0 0.00 0.00 0.00 86 1020.3
20260831093032 63 220 0.0 0.0 0.00 0.00 0.00 86 1020.4
20260831092531 63 220 0.0 0.0 0.00 0.00 0.00 86 1020.3
20260831092030 63 220 0.0 0.0 0.00 0.00 0.00 86 1020.4
20260831091549 64 220 0.0 0.0 0.00 0.00 0.00 86 1020.4
20260831091033 64 220 0.0 0.0 0.00 0.00 0.00 86 1020.4
20260831090530 64 220 0.0 0.0 0.00 0.00 0.00 86 1020.4
20260831090030 64 220 0.0 0.0 0.00 0.00 0.00 86 1020.2
20260831085529 64 220 0.0 0.0 0.00 0.00 0.00 85 1020.2
20260831085029 64 220 0.0 0.0 0.00 0.00 0.00 85 1020.1
20260831084528 64 220 0.0 0.0 0.00 0.00 0.00 85 1019.9
20260831084026 64 220 0.0 0.0 0.00 0.00 0.00 85 1019.9
20260831083526 64 220 0.0 0.0 0.00 0.00 0.00 85 1020.0
20260831083026 64 220 0.0 0.0 0.00 0.00 0.00 85 1020.1
20260831082527 65 220 0.0 0.0 0.00 0.00 0.00 85 1020.0
20260831082025 65 220 0.0 0.0 0.00 0.00 0.00 84 1020.1
20260831081534 65 220 0.0 0.0 0.00 0.00 0.00 84 1020.0
20260831081024 65 220 0.0 0.0 0.00 0.00 0.00 84 1020.0
20260831080523 65 220 0.0 0.0 0.00 0.00 0.00 84 1019.9
20260831080051 65 220 0.0 0.0 0.00 0.00 0.00 84 1019.9
20260831075522 65 220 0.0 0.0 0.00 0.00 0.00 84 1019.9
20260831075022 66 220 0.0 0.0 0.00 0.00 0.00 84 1019.9
20260831074522 66 220 0.0 0.0 0.00 0.00 0.00 84 1020.0
20260831074024 66 220 0.0 0.0 0.00 0.00 0.00 84 1020.1
20260831073521 66 220 0.0 0.0 0.00 0.00 0.00 84 1020.1
20260831073051 66 220 0.0 0.0 0.00 0.00 0.00 84 1020.1
20260831072519 66 220 0.0 0.0 0.00 0.00 0.00 83 1020.1